Theta_e
287 287 287 286 286 285 283 284 284 283 282 281 281 280 280 278 278 277 277 276 276 276 276 276 276 276 275 275 276 275 274 274 270 273 275 275 275 275 276 276 277 276 277
288 287 286 286 285 284 284 283 283 282 282 281 281 280 280 279 277 277 276 276 275 275 275 275 274 275 273 273 273 272 272 273 271 269 272 273 273 274 275 275 276 277 277
285 285 285 285 284 284 284 283 282 282 281 281 280 279 279 278 277 276 276 275 274 274 274 274 273 273 272 272 272 271 272 273 272 270 270 273 273 274 275 276 276 277 278
284 285 285 284 284 284 285 283 281 281 280 279 279 279 278 277 276 276 275 274 273 273 273 273 273 272 272 272 272 272 272 272 272 271 271 271 273 275 276 274 274 276 276
285 285 285 285 285 284 283 282 281 281 280 279 278 277 277 276 276 275 274 273 273 272 272 273 273 273 275 275 273 272 272 270 271 271 271 272 273 274 273 275 274 274 274
284 284 285 283 282 282 282 281 280 279 279 278 277 276 275 276 280 280 276 273 273 272 271 272 273 273 274 278 278 279 275 270 269 270 272 272 272 274 275 273 272 272 270
285 285 284 283 282 281 282 280 279 278 278 277 277 276 275 276 281 282 279 274 273 272 272 273 273 274 274 274 277 278 279 279 279 276 272 273 273 274 274 273 273 273 272
284 283 280 280 282 280 279 278 278 278 277 276 276 276 275 275 282 282 279 274 274 274 274 274 273 273 274 274 273 273 274 275 275 275 275 275 276 276 276 276 275 272 272
282 280 279 279 280 278 278 277 277 277 276 276 276 275 275 275 282 283 280 274 274 274 274 274 274 274 275 277 275 272 273 275 278 279 280 280 280 280 279 274 269 267 266
281 280 277 278 279 277 278 276 277 277 276 276 275 275 275 274 282 283 280 274 273 273 274 274 275 274 277 278 274 270 270 273 274 271 273 275 275 273 275 272 269 266 266
277 276 274 274 274 274 275 275 276 276 275 274 273 273 274 274 279 283 283 275 273 272 272 272 274 278 278 278 278 275 273 275 272 271 269 269 269 270 270 271 271 270 267
276 274 272 271 273 272 274 272 271 273 272 271 272 271 273 274 278 283 283 278 277 272 272 273 274 278 277 277 277 276 276 275 265 264 265 266 267 268 270 271 272 272 272
279 277 275 276 275 272 274 273 272 272 272 271 271 270 270 272 275 282 283 280 278 273 274 275 276 276 277 275 274 273 271 267 264 262 264 265 268 269 270 270 270 271 271
279 279 276 274 273 273 274 273 273 271 272 271 271 270 270 269 271 277 278 279 277 275 276 275 274 272 271 270 269 268 267 267 266 265 265 267 268 267 267 268 267 268 267
274 277 276 274 273 272 273 272 273 274 274 272 272 272 269 268 270 275 277 277 276 274 268 267 265 266 265 265 265 265 266 266 265 265 265 265 265 266 266 267 267 266 265
269 272 276 274 273 272 272 272 277 277 277 279 278 275 273 275 276 277 279 280 278 275 265 264 264 264 264 264 263 263 264 263 264 264 264 264 264 264 264 265 266 265 264
266 269 274 273 273 271 271 270 269 275 278 279 279 278 276 276 277 278 279 279 278 274 264 264 264 263 263 263 262 262 261 262 263 262 262 262 263 263 263 263 264 264 265
266 268 271 275 273 271 271 270 270 270 271 272 278 278 278 277 278 279 279 278 274 267 262 262 261 261 260 261 260 260 260 260 260 260 260 260 260 261 261 262 263 263 264
265 267 269 274 273 271 270 270 269 270 270 271 273 277 276 278 279 279 279 273 264 261 260 259 259 258 258 258 257 257 256 256 257 256 256 258 259 260 261 262 263 264 264
265 266 269 271 270 269 269 268 268 269 270 271 272 272 273 275 275 275 267 265 263 260 258 258 256 256 255 254 253 252 252 252 254 254 256 258 259 260 261 261 263 263 263
263 266 269 272 269 268 268 268 268 269 270 270 271 273 276 274 272 263 261 262 261 259 258 257 255 253 252 250 249 249 248 252 254 253 255 257 258 259 261 262 264 263 263
267 268 270 268 268 267 268 268 269 270 270 269 270 273 278 265 263 261 260 258 257 257 256 255 252 251 251 250 249 247 248 250 251 252 255 257 258 259 261 263 263 262 262
267 267 267 266 266 267 267 268 268 268 267 266 268 266 262 262 260 259 257 256 254 253 252 249 250 250 249 248 247 248 248 251 251 250 254 255 257 259 262 263 262 261 261
264 265 265 265 266 266 265 265 264 263 264 266 262 261 260 259 258 257 255 254 254 252 250 250 250 249 247 247 248 248 249 250 250 252 254 255 257 261 263 262 261 260 261
262 262 263 262 262 262 262 262 262 263 262 260 259 258 258 257 256 255 254 254 253 252 251 251 250 247 248 249 249 249 249 253 252 254 255 259 263 262 262 260 260 260 260
260 260 260 261 260 260 260 261 261 260 259 258 258 257 257 256 255 254 253 253 253 253 252 251 250 250 250 249 249 252 253 259 259 262 265 266 262 263 261 259 258 259 259
Wind_Speed
15 16 14 14 14 13 13 14 15 13 14 15 16 15 15 15 13 12 10 10 10 8 5 7 7 6 5 5 4 3 4 4 6 4 4 2 4 7 9 8 9 10 10
14 13 16 13 13 15 15 15 15 16 15 16 16 16 16 16 15 15 13 12 12 12 10 9 9 7 8 6 5 5 5 5 4 9 4 4 4 7 9 12 9 8 10
9 11 11 13 13 17 18 15 15 15 16 15 16 18 18 17 16 15 14 13 12 11 11 11 9 8 7 6 5 5 4 5 5 6 8 3 6 7 9 10 9 9 8
9 13 16 16 18 18 14 15 16 17 17 18 17 17 17 17 16 16 15 13 12 11 10 9 9 10 8 8 6 6 5 4 6 7 8 8 7 8 7 11 12 9 10
10 12 16 16 15 14 14 15 14 16 16 16 16 14 15 16 14 18 16 14 13 11 9 10 9 9 14 10 6 6 6 5 6 7 9 10 8 9 10 10 13 14 12
10 14 14 10 10 13 13 14 15 15 15 16 17 18 18 13 26 29 20 14 13 13 11 9 8 9 11 14 14 15 13 8 8 6 8 10 12 10 10 11 13 14 15
13 12 10 10 13 14 13 14 15 16 14 16 16 17 17 16 30 30 28 14 14 12 12 11 9 7 9 7 11 12 12 13 14 10 10 11 14 12 13 15 15 15 15
13 10 3 6 10 9 11 14 15 14 17 16 16 16 15 14 30 30 28 13 12 13 14 14 12 10 10 8 7 7 8 9 10 9 10 12 12 11 13 14 15 18 16
13 9 5 5 6 6 11 11 11 11 12 15 15 17 17 15 31 31 26 14 14 13 12 12 11 10 14 17 11 8 8 9 11 16 19 23 26 26 21 13 12 12 16
14 11 7 5 6 8 8 9 8 9 10 9 10 13 17 17 30 32 25 12 13 11 11 11 16 12 18 17 6 5 6 7 6 5 9 12 14 16 24 13 9 12 13
10 9 6 4 4 4 5 5 8 8 9 10 12 10 11 14 22 34 32 13 12 11 11 10 8 21 17 13 10 6 5 6 7 4 5 7 9 10 9 10 12 12 13
7 7 7 3 3 3 6 3 5 7 9 9 10 8 9 12 18 31 32 21 21 12 12 9 9 18 14 11 6 6 9 8 2 2 5 7 8 8 9 11 14 15 15
10 10 7 5 5 6 8 9 7 7 7 8 9 8 8 7 8 27 30 25 21 9 8 13 18 17 13 6 5 6 1 1 2 3 6 8 8 9 12 14 15 18 19
18 14 7 7 7 7 7 7 9 11 10 10 11 11 10 9 10 10 11 14 18 12 17 11 10 9 9 8 4 3 2 3 4 5 7 9 9 8 10 10 13 13 15
19 15 11 7 9 9 10 9 10 11 13 13 13 12 14 13 16 21 19 12 11 13 9 5 4 5 5 5 3 2 3 3 5 5 7 8 8 9 10 10 11 13 15
17 13 11 8 8 9 9 8 20 17 19 22 20 16 10 16 30 34 33 30 27 28 6 5 5 6 6 5 4 3 3 4 5 5 6 7 7 9 11 12 12 13 15
17 16 13 10 9 9 9 9 9 12 18 21 21 22 22 19 30 34 34 32 31 24 5 7 7 6 5 5 4 3 2 3 6 5 5 7 7 9 12 12 13 13 16
17 22 15 13 10 9 10 9 7 9 10 9 19 17 23 24 31 32 31 28 17 11 6 7 7 7 5 4 3 2 2 4 5 6 5 6 8 9 10 12 13 16 17
17 14 14 12 9 11 9 8 8 9 9 8 8 16 17 25 31 33 34 12 11 9 6 6 6 6 5 4 3 2 2 4 6 5 5 6 8 8 11 12 14 20 22
17 23 21 15 8 8 7 8 8 9 10 10 11 11 12 16 16 15 8 9 9 8 7 6 6 5 5 4 3 3 2 3 6 6 6 7 7 9 11 13 14 17 17
13 13 17 10 7 8 8 8 9 9 10 9 10 12 23 15 11 10 10 8 8 8 7 6 5 5 4 3 3 4 3 4 6 7 7 7 7 9 10 11 14 16 17
13 12 10 7 6 7 7 7 8 8 9 10 8 12 27 9 9 10 9 7 6 5 4 5 4 4 4 5 5 4 3 4 6 6 7 8 8 10 11 11 15 16 17
5 1 3 3 5 6 6 6 7 8 8 9 11 8 9 9 8 8 9 7 6 5 3 2 3 3 3 3 4 4 3 6 8 5 7 8 8 10 11 12 15 16 16
4 4 4 4 5 5 6 6 7 10 9 9 9 8 9 8 8 9 8 6 5 4 3 3 3 4 3 4 3 3 6 8 7 7 10 9 10 12 11 12 13 18 17
5 5 6 6 6 7 8 8 8 8 8 8 8 8 9 9 9 8 7 5 4 4 4 4 3 3 4 6 6 8 9 13 9 12 8 12 11 13 10 10 14 16 19
6 7 6 6 6 6 7 7 8 8 8 8 8 8 9 8 7 7 5 5 4 4 4 3 2 4 5 6 9 10 10 12 11 14 10 10 8 9 8 11 17 14 17
Wind_Direction
203 209 205 202 203 191 186 189 188 174 177 175 181 180 180 177 174 176 177 168 171 168 168 177 180 163 166 162 155 179 193 193 241 255 240 296 298 294 295 287 286 291 298
217 212 209 201 194 197 201 195 186 182 182 180 176 181 182 182 177 179 177 176 175 178 178 177 184 179 175 163 162 190 209 210 229 277 265 238 271 284 283 288 287 287 285
193 201 214 210 200 208 207 196 185 181 181 183 179 184 183 182 178 180 179 176 178 179 178 182 184 179 173 170 174 187 204 233 240 261 284 286 294 289 292 290 294 285 279
194 207 211 208 207 210 206 196 186 185 183 184 186 186 182 179 177 176 175 173 178 179 174 176 178 182 178 173 178 188 210 229 251 268 281 290 292 297 290 309 308 302 300
224 226 232 223 211 204 199 198 190 190 189 183 176 183 180 180 178 176 174 174 172 169 169 173 187 180 190 180 164 180 196 220 242 268 282 290 298 319 313 311 305 309 307
242 235 232 207 207 201 197 191 190 189 186 181 184 180 180 186 186 181 168 169 172 170 173 178 184 185 199 197 206 210 202 201 228 250 274 298 304 309 313 311 305 308 310
274 254 235 213 204 201 192 184 186 190 177 189 186 181 185 185 183 182 174 167 172 176 169 168 178 195 192 199 221 226 246 262 269 277 280 283 297 305 303 298 297 291 291
310 279 258 224 222 204 190 192 186 187 186 184 186 185 182 182 183 181 176 167 167 172 172 166 179 184 186 179 190 219 233 237 249 256 263 272 273 278 283 290 302 302 294
325 304 269 215 224 196 203 196 191 190 190 186 184 179 179 178 183 182 174 167 167 171 171 169 174 174 187 197 195 204 236 253 265 279 287 290 294 295 299 306 296 299 291
325 301 262 212 208 203 206 194 189 192 186 183 183 181 173 164 183 188 176 168 167 162 166 177 183 183 193 199 184 181 239 252 275 283 278 288 301 296 295 285 283 276 283
305 292 271 216 204 185 172 173 177 179 176 174 170 172 182 175 182 187 183 175 169 167 169 173 180 195 195 202 211 190 204 260 267 312 299 290 290 283 279 270 267 266 275
292 279 272 230 136 144 157 134 145 168 175 167 166 166 177 183 189 190 187 187 179 166 166 167 169 185 186 202 213 259 269 282 55 321 286 278 276 280 284 283 278 271 267
292 273 244 234 185 163 171 164 161 161 185 178 173 178 178 171 193 193 191 178 190 167 154 161 172 174 181 191 216 224 220 132 186 245 269 271 275 285 290 289 283 278 275
305 285 246 214 207 188 188 189 181 173 197 191 178 183 176 166 178 192 185 177 188 172 166 163 166 136 151 158 171 170 161 230 241 254 269 276 284 290 288 287 286 286 286
298 293 266 226 220 205 205 199 213 205 199 195 195 186 175 180 188 177 171 176 168 161 124 120 132 141 158 158 176 162 220 232 248 255 266 277 289 294 291 295 289 290 286
292 288 269 237 222 220 210 204 220 223 220 218 210 196 196 196 182 182 179 174 166 155 137 149 169 155 172 168 180 187 215 237 252 260 267 277 290 295 297 300 290 289 293
283 286 283 243 225 212 218 194 197 217 218 221 211 209 198 189 186 184 178 172 170 155 153 163 170 154 168 165 189 193 214 256 272 262 274 283 293 289 301 299 298 300 293
279 277 273 265 229 212 215 203 181 188 195 201 219 207 200 193 187 182 176 169 173 143 139 161 155 138 160 177 188 209 263 282 277 274 278 287 285 285 295 297 299 297 301
281 275 273 270 228 216 203 187 183 184 189 186 179 195 188 195 186 177 175 173 148 144 149 158 139 143 160 166 188 203 240 274 276 282 271 277 279 287 291 294 297 297 302
269 261 254 253 209 201 189 185 183 185 187 184 180 172 167 183 180 175 137 132 143 141 150 155 149 143 159 155 192 205 219 255 276 265 270 270 281 279 288 300 294 305 303
268 268 254 247 195 192 186 185 187 186 186 181 175 171 176 179 154 139 133 145 140 143 154 157 154 145 158 163 179 201 202 261 272 266 268 280 285 287 289 286 302 303 301
267 259 242 194 177 178 181 181 183 177 169 166 150 175 166 112 124 130 121 119 109 117 133 145 146 164 173 176 189 189 188 258 265 254 272 285 284 286 290 294 308 308 305
302 17 122 133 152 163 166 162 158 159 144 142 151 115 109 116 117 116 120 120 116 121 107 110 160 180 197 207 201 179 188 247 250 235 276 282 287 286 286 308 312 310 308
13 52 93 113 132 126 121 124 115 116 124 133 104 113 117 117 118 113 112 110 122 125 133 182 196 198 213 223 208 209 228 244 244 257 257 270 275 283 298 309 310 308 307
39 57 68 84 96 105 108 106 110 118 109 106 111 109 108 109 111 112 113 127 132 143 171 189 201 223 254 278 269 255 247 265 259 256 261 263 273 289 293 304 305 307 311
46 56 64 70 77 86 97 106 110 113 111 107 107 106 111 111 112 115 127 145 159 176 183 194 218 248 265 260 262 265 266 278 281 280 273 291 282 291 301 305 303 309 316